Theta_e
360 359 360 359 357 357 356 356 355 354 353 353 353 350 349 346 345 345 342 342 345 344 344 345 345 346 346 344 345 345 346 345 346 345 348 346 345 346 349 347 345 345 342
357 357 358 359 357 356 354 355 355 355 353 353 350 349 347 346 347 346 344 344 346 346 343 343 343 344 345 346 346 345 346 348 348 346 347 348 346 346 345 345 344 343 345
356 358 358 358 356 354 354 354 354 354 353 351 350 349 348 346 346 345 346 348 348 346 345 345 345 345 346 347 347 347 346 348 348 345 341 347 348 348 346 344 343 345 346
357 359 359 357 357 355 353 353 353 351 351 351 350 350 348 347 347 347 346 347 346 345 344 340 341 345 346 348 347 349 349 348 347 347 340 345 347 347 347 346 346 347 347
359 358 357 358 356 356 354 353 351 351 351 350 350 350 349 347 346 346 347 346 345 341 337 342 345 347 347 347 347 348 347 346 346 344 344 347 343 342 346 348 347 347 346
358 357 356 357 356 353 351 354 351 352 352 351 350 350 348 348 346 344 345 343 346 345 339 338 337 338 345 347 347 346 347 346 344 343 341 346 347 347 347 346 346 344 345
357 357 356 357 356 355 355 354 352 352 349 350 349 348 349 349 348 351 352 349 349 347 344 343 337 337 340 344 347 347 343 342 342 340 340 344 346 348 347 345 345 345 345
358 359 357 358 357 356 357 355 353 351 351 351 349 348 350 349 348 350 349 350 350 348 343 346 341 338 337 341 344 345 344 342 342 338 343 342 343 344 346 347 347 345 343
361 357 358 357 358 355 355 354 356 353 353 354 349 352 350 353 350 348 346 346 348 346 342 345 345 342 338 338 338 339 339 339 339 340 341 341 341 342 342 343 344 344 344
363 361 356 351 351 353 353 354 354 355 353 350 350 351 351 351 349 351 349 345 338 341 342 345 344 342 343 339 338 336 336 340 340 340 339 339 338 328 326 344 345 346 345
362 362 361 357 355 356 354 353 352 350 349 349 349 348 348 348 348 349 348 345 333 341 345 345 344 343 341 340 339 338 334 337 337 338 335 332 329 326 325 334 344 345 346
360 360 361 362 359 356 355 353 352 349 346 347 348 347 347 348 348 348 345 344 331 343 346 347 345 344 344 344 342 338 335 334 334 334 333 328 325 322 321 322 330 343 345
366 363 361 360 360 357 356 354 352 349 340 345 343 346 344 347 347 347 344 343 337 332 344 343 344 343 343 342 343 341 338 337 336 333 329 325 326 333 335 334 330 332 342
361 360 359 358 358 357 354 353 353 349 346 338 342 346 347 336 333 343 342 342 341 337 332 334 340 341 341 341 342 341 340 338 336 335 331 326 327 329 331 336 336 335 332
348 353 352 351 349 347 347 347 348 347 344 342 340 340 340 338 339 341 338 336 338 340 340 335 333 333 339 340 340 338 339 338 337 334 332 326 325 328 329 335 336 337 336
343 346 345 345 344 345 345 345 344 344 344 344 344 341 344 342 339 336 335 338 338 338 338 340 339 336 333 331 333 335 336 337 337 334 330 327 324 327 335 336 335 337 336
341 343 345 345 347 344 343 343 342 342 340 342 338 337 340 340 340 340 338 342 341 341 341 339 339 334 331 332 335 336 336 333 331 331 326 326 324 325 327 336 335 334 332
342 341 340 340 341 343 343 342 342 341 342 342 342 341 340 340 340 338 338 339 341 342 341 339 335 333 333 334 337 337 336 334 333 332 328 326 326 328 328 330 332 332 332
341 341 342 341 340 340 341 341 341 342 340 340 340 339 337 336 337 337 337 339 339 339 338 336 334 334 335 336 335 336 335 333 332 330 327 327 325 325 329 331 330 330 330
340 338 335 339 339 339 339 338 338 337 337 336 336 334 333 333 333 333 334 336 337 337 337 336 336 337 337 336 336 332 332 333 333 331 326 323 321 321 320 327 329 329 329
338 337 337 336 337 337 338 338 336 336 336 335 334 330 328 328 328 330 331 331 331 332 334 334 335 334 334 334 333 332 331 332 332 325 323 324 325 325 322 318 318 321 321
338 338 336 337 338 338 338 337 337 336 336 336 335 334 333 332 328 327 327 327 328 329 330 331 332 331 331 329 327 327 325 324 325 324 322 322 324 325 326 325 323 324 323
333 335 331 332 333 333 333 334 335 336 336 335 335 335 333 332 331 329 327 325 326 327 328 328 327 327 326 325 325 325 325 326 325 323 321 321 321 322 323 325 326 324 322
331 330 331 330 329 332 331 328 332 333 333 333 333 333 334 333 332 330 330 329 328 325 325 324 325 325 325 325 324 324 324 323 321 320 320 321 322 321 321 321 320 321 321
331 329 327 327 327 330 330 329 328 327 328 327 329 329 330 331 331 330 330 329 330 329 327 326 326 325 324 325 325 325 324 323 322 322 322 321 320 321 322 322 322 321 321
321 320 321 321 320 321 321 322 321 323 327 327 324 324 326 325 324 325 323 320 320 326 328 328 327 327 326 325 326 325 324 323 323 322 323 323 322 321 320 319 320 320 320
Wind_Speed
22 19 19 17 17 19 20 21 21 20 22 21 19 17 16 16 16 16 15 14 14 13 15 19 20 19 23 21 21 24 21 24 25 17 24 22 26 37 33 31 32 34 27
18 17 18 15 15 14 14 19 19 20 20 17 15 15 15 15 14 14 14 13 11 14 16 18 22 24 24 26 22 23 25 21 19 21 15 22 27 31 41 35 35 30 30
19 16 18 19 16 15 15 14 17 17 17 15 14 13 13 13 13 12 12 10 10 11 15 19 17 18 18 18 19 20 24 22 22 15 26 24 27 30 32 42 40 35 31
19 19 20 20 19 17 15 15 14 14 16 16 15 13 11 11 11 11 12 11 11 11 12 17 19 15 14 16 18 20 21 25 19 28 18 21 22 31 31 33 31 30 27
20 19 20 20 18 17 18 19 16 15 14 15 15 13 12 12 12 11 11 12 11 9 9 8 7 3 8 12 18 20 19 21 20 13 17 10 14 20 30 33 32 32 30
21 20 20 21 19 15 17 14 15 19 17 15 17 15 15 15 12 11 10 11 8 9 9 6 5 4 7 11 18 18 15 20 15 16 24 15 14 18 22 21 22 22 25
22 21 21 22 21 19 17 17 17 20 17 18 17 18 17 15 13 13 17 16 13 12 9 7 4 3 3 7 11 14 15 16 14 21 15 14 13 13 18 17 19 19 24
21 21 22 23 23 22 21 19 18 20 21 20 17 17 18 16 15 15 12 18 17 15 13 11 6 3 1 3 10 14 18 20 17 16 12 15 15 16 19 17 16 17 20
19 19 22 25 23 21 26 22 21 20 22 23 23 21 22 20 20 19 15 16 19 19 16 12 10 8 7 5 6 10 11 14 16 19 17 11 13 14 13 15 19 19 21
15 15 16 20 21 20 22 23 23 21 23 23 24 26 24 23 22 20 18 18 19 20 17 15 13 10 11 12 12 10 10 12 14 16 16 16 16 17 19 16 17 23 27
13 14 14 15 16 18 19 20 19 17 16 19 21 21 22 24 23 21 21 20 18 19 17 16 14 11 12 9 11 14 13 12 13 13 15 17 20 20 17 20 18 19 22
14 15 15 14 15 16 17 19 20 17 15 17 18 20 20 22 24 21 21 18 19 23 19 20 18 15 15 14 11 11 14 15 15 16 18 17 17 19 17 17 21 22 21
16 12 12 13 15 17 19 19 23 23 24 23 24 23 22 20 21 23 22 21 20 26 26 19 19 20 19 19 18 14 15 17 18 18 17 16 11 8 8 9 18 25 25
8 9 12 15 16 18 19 19 21 22 27 26 23 27 19 15 17 20 20 22 22 26 30 30 27 22 20 19 21 19 17 17 17 18 18 16 15 16 17 18 19 17 19
4 1 1 3 2 4 5 9 9 16 20 27 25 23 26 24 23 20 19 22 27 29 29 31 29 31 27 22 23 23 21 20 21 19 19 18 18 16 15 18 22 25 22
6 5 4 3 3 5 6 3 5 9 15 18 21 29 23 22 30 29 28 33 25 26 30 32 32 32 29 26 23 23 23 23 24 21 22 21 22 17 15 19 21 24 21
4 3 5 4 7 5 4 6 5 5 6 3 8 14 20 23 26 29 32 21 15 18 24 25 28 29 26 23 20 21 19 15 13 13 15 19 23 23 19 21 25 23 18
1 3 1 1 5 7 8 6 5 4 3 4 6 9 10 11 12 13 15 17 15 18 20 21 25 25 23 22 21 23 22 20 20 18 16 17 21 22 24 22 24 23 23
1 2 2 1 4 3 3 3 2 2 2 2 3 8 9 10 11 11 10 14 18 20 23 23 24 24 26 25 27 28 27 25 21 18 21 20 20 24 25 23 23 25 24
3 5 1 3 5 5 1 3 1 1 1 1 2 4 7 6 7 9 13 16 20 20 22 23 26 27 28 26 24 29 29 29 27 23 18 15 15 19 21 24 25 26 25
2 1 6 2 2 2 1 1 1 1 1 3 6 6 8 8 10 8 7 6 11 16 20 20 21 24 26 28 26 26 31 30 26 21 17 16 16 14 13 17 21 22 20
3 1 2 3 4 1 2 2 1 1 1 5 6 6 9 12 10 10 10 11 9 5 5 11 15 17 17 15 11 15 18 19 22 22 23 22 19 19 19 21 22 21 19
4 3 5 8 7 7 6 4 1 4 3 3 5 7 7 9 9 12 13 9 6 3 3 2 1 4 5 7 11 15 18 22 23 24 24 21 21 23 22 23 25 24 21
4 5 5 7 7 6 9 12 8 6 4 4 4 7 7 6 6 7 9 11 12 9 6 3 1 1 2 5 10 13 16 16 18 19 21 24 26 26 24 25 26 22 21
8 8 7 6 7 5 6 9 12 14 13 13 12 9 7 1 3 6 9 10 9 8 8 7 6 5 4 9 12 14 16 19 22 23 24 25 29 30 31 33 33 30 26
14 12 12 12 11 10 12 14 13 10 6 9 14 13 12 9 9 8 9 13 14 10 9 9 9 11 11 10 10 10 11 16 22 25 28 30 30 25 21 17 19 21 21
Wind_Direction
227 231 239 243 238 243 243 246 249 244 245 250 255 260 253 257 240 249 239 247 252 252 252 259 260 257 257 259 249 236 237 234 229 232 230 233 230 222 219 220 217 226 235
219 232 232 230 227 239 252 248 243 243 246 237 241 249 248 240 234 238 242 251 248 262 266 267 269 272 265 260 246 232 230 231 229 229 221 234 222 226 221 216 221 231 236
224 225 218 224 228 223 232 246 236 231 237 227 233 234 239 229 230 239 243 240 258 269 269 271 274 275 264 246 231 222 212 218 218 226 238 240 234 224 217 217 225 234 232
216 215 224 218 220 223 228 227 241 232 226 231 226 229 230 226 233 235 233 235 240 261 288 291 288 269 244 226 219 205 208 211 214 220 207 241 236 222 210 221 218 225 228
214 219 218 222 230 239 225 215 216 216 219 215 220 221 227 223 225 225 233 236 248 281 300 316 322 277 232 229 220 215 216 223 219 182 212 241 241 219 216 213 222 227 232
210 223 222 226 233 235 210 207 215 210 214 217 221 226 223 225 224 214 215 228 254 280 284 318 326 285 223 221 226 226 220 228 213 196 217 214 215 207 215 229 238 232 231
211 220 222 230 237 235 224 224 228 218 217 215 218 221 225 229 225 232 241 251 260 279 279 295 306 348 263 219 215 222 204 194 199 220 216 205 219 221 210 215 229 239 236
218 219 225 230 236 239 228 235 232 225 220 219 223 224 232 231 231 232 252 251 259 270 272 279 283 274 359 198 204 219 229 226 217 203 216 220 227 231 226 221 220 225 232
229 230 233 234 237 241 229 232 234 229 233 230 233 230 239 242 237 225 228 241 254 263 266 270 267 265 265 243 217 220 216 212 215 217 227 226 228 229 233 235 229 235 231
244 250 244 242 241 237 231 229 237 241 248 248 246 245 244 243 236 235 240 237 244 247 251 263 264 253 252 252 249 241 220 212 211 218 228 234 241 250 256 249 231 229 234
268 275 269 262 249 248 247 239 239 248 261 268 268 270 260 251 243 240 249 249 236 225 234 251 261 258 242 237 246 251 246 220 221 226 234 243 248 255 255 239 235 236 238
254 265 263 263 258 255 248 241 229 211 234 239 269 262 263 269 256 257 252 248 234 229 236 236 253 261 258 249 240 241 245 249 246 244 247 252 256 262 259 247 229 230 230
228 245 252 254 250 251 247 244 239 228 231 222 236 239 238 239 268 260 264 259 244 231 234 239 243 246 250 248 238 240 239 245 250 253 253 250 241 220 230 221 216 225 228
216 228 245 250 250 255 261 262 263 237 224 229 244 238 231 219 272 263 254 262 261 244 239 242 245 250 243 245 240 240 244 254 254 254 258 255 239 251 255 230 227 228 232
254 326 272 289 297 302 295 290 274 241 225 251 252 249 249 251 235 242 260 269 266 260 254 244 248 250 247 242 238 251 251 253 253 256 255 246 230 260 252 231 233 233 231
164 176 169 190 325 312 319 310 273 260 262 262 253 244 243 250 241 254 272 284 277 252 251 245 251 249 246 247 250 255 259 259 258 256 249 238 227 242 233 230 224 220 231
152 209 233 247 184 241 271 303 304 310 322 261 236 228 245 259 261 265 268 267 258 234 230 244 248 245 245 243 249 258 260 263 250 253 245 232 236 239 238 222 226 229 222
69 78 97 88 226 233 226 232 243 263 286 268 245 241 255 268 271 273 263 251 247 239 246 246 238 236 240 247 247 242 247 253 253 251 247 244 242 239 236 227 217 217 221
72 353 307 16 73 66 144 150 236 251 208 248 281 303 305 285 276 279 265 252 242 242 239 235 239 242 245 251 248 246 245 233 222 235 234 260 262 245 237 233 227 229 230
72 37 291 93 87 74 110 98 116 16 76 72 336 336 340 327 292 279 262 247 242 242 240 246 251 256 261 253 257 248 243 241 237 231 231 251 257 249 241 236 239 239 237
114 14 126 99 156 181 143 182 183 172 205 347 6 29 20 6 350 335 330 301 261 247 247 251 253 258 259 262 268 274 252 239 225 213 213 215 228 225 214 236 244 236 231
154 41 331 229 222 315 167 251 105 315 333 308 346 349 2 5 5 360 3 360 358 343 264 247 257 262 267 266 266 226 201 193 199 221 225 225 233 248 252 237 226 244 240
128 93 69 73 77 71 54 46 234 237 235 278 317 322 340 348 9 17 16 6 9 46 72 89 197 254 232 217 227 234 238 237 241 237 228 232 241 249 253 257 249 235 232
127 85 73 67 57 76 53 47 48 28 38 326 311 323 312 292 332 358 6 10 20 19 2 359 23 332 295 264 253 251 253 252 235 234 239 245 246 258 260 265 266 256 236
146 130 90 80 70 85 68 50 52 43 42 42 46 36 27 337 344 341 341 336 328 326 342 357 356 350 295 247 244 250 252 252 248 252 253 249 242 254 265 260 262 262 255
104 100 98 87 73 70 76 69 50 42 26 45 45 31 23 39 27 31 21 17 5 324 299 298 308 295 309 306 290 280 269 260 257 256 258 256 258 251 241 243 247 247 246